Laurent Verva

Laurent Verva

Statistiques 2026

  • Courses courues : 42
  • Nb de victoires : -
  • Nb de places : 1
  • Écart gagnant : 143
  • Réussite à la gagne : -
  • Réussite à la place : 2%
Musique : 0a 8a 4a 6a 6a 0a 5a 5a Da 2a 9a 6a 5a Da 6a 0a 7a 4a
DateRangCatégorieAlloc.Dist.HippodromeChevalRed. KmSpé.
10/12/17 5 Trot 12 000€ 2 225m Mauquenchy Ethano de Bouteau 1'19"1 Attelé
17/12/17 5 Trot 55 000€ 2 700m Vincennes As de Godisson 1'14"2 Attelé lire

Vite aux avant-postes, a donné un très bon coup de reins pour finir.

19/12/17 5 Trot 20 000€ 2 400m Amiens Eliseo Dairpet 1'18"0 Attelé
04/02/18 5 Trot 19 000€ 2 850m Mauquenchy Daisy de la Folie 1'18"2 Attelé
23/02/18 5 Trot 30 000€ 2 850m Mauquenchy Bella de Vive 1'17"8 Attelé
23/02/18 5 Trot 19 000€ 2 875m Mauquenchy Daisy de la Folie 1'17"8 Attelé
04/03/18 5 Trot 15 000€ 2 700m La Capelle Daisy de la Folie 1'17"0 Attelé
04/03/18 5 Trot 15 000€ 2 750m La Capelle Etoile de Favi 1'20"2 Attelé
16/03/18 5 Trot 17 000€ 2 850m Mauquenchy Daisy de la Folie 1'18"3 Attelé
18/03/18 5 Trot 15 000€ 2 750m La Capelle Flying Jet 1'22"4 Attelé
25/03/18 5 Trot 19 000€ 2 600m Reims Etoile Dubonheur 1'17"7 Attelé
25/03/18 5 Trot 14 000€ 2 550m Reims Ariaka 1'17"2 Attelé
01/04/18 5 Trot 21 000€ 2 600m Reims Cubana 1'16"3 Attelé lire

Après avoir bien figuré, a conclu fort honorablement.

09/04/18 5 Trot 21 000€ 2 600m Reims Au Temps Dubonheur 1'14"3 Attelé
15/04/18 5 Trot 12 000€ 2 175m Saint Omer Fylena d'Isques 1'18"8 Attelé
15/04/18 5 Trot 12 000€ 2 175m Saint Omer Filou du Lion 1'20"5 Attelé
15/04/18 5 Trot 15 000€ 2 625m Saint Omer Easy de Navary 1'18"7 Attelé
22/04/18 5 Trot 13 000€ 2 900m Arras Extra de la Loge Attelé
01/05/18 5 Trot 11 000€ 2 175m Saint Omer Filou des Vallees 1'19"8 Attelé
01/05/18 5 Trot 12 000€ 2 625m Saint Omer Elsa d'Amor 1'21"4 Attelé
09/05/18 5 Trot 35 000€ 2 800m Chartres Bilingue d'Alci 1'14"6 Attelé
17/05/18 5 Trot 21 000€ 2 825m Chartres Bilingue d'Alci 1'17"6 Attelé
21/05/18 5 Trot 12 000€ 2 900m Arras Farca Sly Attelé
02/06/18 5 Trot 23 000€ 2 400m Amiens Buxus Calendes 1'14"0 Attelé
03/06/18 5 Trot 15 000€ 3 150m Abbeville Diane d'Idef TNC Attelé
04/06/18 5 Trot 18 000€ 2 200m Caen Etoile Dubonheur 1'15"9 Attelé
08/06/18 5 Trot 30 000€ 2 850m Mauquenchy Cannelle d'As 1'17"0 Attelé
09/06/18 5 Trot 13 000€ 2 600m Reims Farca Sly 1'18"5 Attelé
16/06/18 5 Trot 30 000€ 2 400m Amiens Altesse d'Ardennes 1'15"2 Attelé
17/06/18 5 Trot 12 000€ 2 900m Arras Frivole d'Arbaz Attelé
21/06/18 5 Trot 28 000€ 2 800m Chartres Bilingue d'Alci 1'16"0 Attelé
24/06/18 5 Trot 32 000€ 2 600m Le Touquet Aslak 1'21"8 Attelé
27/06/18 5 Trot 16 000€ 2 700m La Capelle Flying Jet 1'17"5 Attelé
27/06/18 5 Trot 18 000€ 2 775m La Capelle Divin de Bougy 1'15"6 Attelé
02/07/18 5 Trot 15 000€ 2 850m Le Croise Laroche Etoile Dubonheur 1'17"1 Attelé
05/07/18 5 Trot 36 000€ 2 150m Enghien Soisy Fayette Tilly 1'15"6 Attelé lire

Arès avoir figuré, a faibli progressivement dans la phase finale.

08/07/18 5 Trot 22 000€ 2 700m La Capelle Dilemne Angele 1'14"6 Attelé
28/07/18 5 Trot 15 000€ 2 900m Amiens Es Tu la Des Fanes 1'17"6 Attelé
29/07/18 5 Trot 18 000€ 2 750m La Capelle Foxtrot du Ganep 1'18"0 Attelé
03/08/18 5 Trot 24 000€ 2 050m Cabourg Elokai 1'15"1 Attelé lire

Jamais très loin, a bien conclu tout en perdant la quatrième place pour finir.

06/08/18 5 Trot 32 000€ 2 550m Dieppe Aristo de Chanjac 1'19"7 Attelé
07/08/18 5 Trot 21 000€ 2 050m Cabourg Elliot d'Alci 1'15"3 Attelé lire

Attentiste en retrait, a donné un bon coup de reins dans la phase finale.

07/08/18 5 Trot 21 000€ 2 050m Cabourg Flamme Mencourt 1'16"6 Attelé lire

Attentiste en queue de peloton, a donné un bon coup de reins pour finir.

12/08/18 5 Trot 11 000€ 2 100m Le Touquet Filae des Salines Attelé
25/08/18 5 Trot 13 000€ 2 400m Amiens Fire Bird 1'18"7 Attelé
26/08/18 5 Trot 13 000€ 2 625m Le Touquet Ercule de Navary Attelé
09/09/18 5 Trot 17 000€ 2 650m Laon Elokai 1'18"0 Attelé
17/09/18 5 Trot 18 000€ 2 750m Cabourg Flamme Mencourt 1'17"1 Attelé
20/09/18 5 Trot 23 000€ 2 650m Lyon La Soie Altesse d'Ardennes 1'14"5 Attelé
19/10/18 5 Trot 21 000€ 2 400m Amiens Daisy de la Folie 1'15"4 Attelé